Terminal Aerodrome Forecast
Issued by NWS Charleston, WV

Current Version | Previous Version | Graphics & Text | Print | Product List | Glossary On
Versions: 1 2 3 4 5 6 7 8 9 10 11 12 13 14 15 16 17 18 19
000
FTUS41 KRLX 170500
TAFEKN
TAF
KEKN 170533Z 1706/1806 14008G15KT P6SM SKC
     FM171700 17007KT P6SM SKC=

USA.gov is the U.S. government's official web portal to all federal, state and local government web resources and services.